Location: Godzisko
(49.9648°N, 19.4576°E)
Time: 07:27:08
(UTC+00:00)

Cosmos 1844 - Pass Details

Date: 20 April 2021
Orbit: 823 x 867 km, 70.9° (Epoch: 06 May)

Event Time Altitude Azimuth Distance (km) Brightness Sun altitude
Exits shadow 00:23:31 37° 272° (W) 1,321 4.5 -24.5°
Maximum altitude 00:24:58 44° 309° (NW) 1,182 4.5 -24.4°
Drops below altitude 10° 00:30:26 10° 21° (NNE) 2,491 7.2 -24.0°
Sets 00:33:01 0° 28° (NNE) 3,423 8.3 -23.8°
